TimeMST,TemperatureF,Dew PointF,Humidity,Sea Level PressureIn,VisibilityMPH,Wind Direction,Wind SpeedMPH,Gust SpeedMPH,PrecipitationIn,Events,Conditions,WindDirDegrees,DateUTC
12:15 AM,35.6,26.6,70,29.84,10.0,SSE,8.1,-,N/A,,Clear,160,2012-11-18 07:15:00
12:55 AM,33.8,26.6,75,29.84,10.0,Calm,Calm,-,N/A,,Clear,0,2012-11-18 07:55:00
1:15 AM,33.8,26.6,75,29.82,10.0,South,6.9,-,N/A,,Clear,190,2012-11-18 08:15:00
1:35 AM,33.8,26.6,75,29.83,10.0,SSE,6.9,-,N/A,,Clear,160,2012-11-18 08:35:00
1:55 AM,35.6,26.6,70,29.82,10.0,SSE,6.9,-,N/A,,Mostly Cloudy,150,2012-11-18 08:55:00
2:15 AM,37.4,26.6,65,29.82,10.0,SSE,8.1,-,N/A,,Scattered Clouds,160,2012-11-18 09:15:00
2:35 AM,37.4,26.6,65,29.82,10.0,West,3.5,-,N/A,,Clear,270,2012-11-18 09:35:00
2:55 AM,37.4,26.6,65,29.81,10.0,SE,4.6,-,N/A,,Partly Cloudy,130,2012-11-18 09:55:00
3:15 AM,37.4,26.6,65,29.81,10.0,SSE,6.9,-,N/A,,Mostly Cloudy,150,2012-11-18 10:15:00
3:35 AM,37.4,26.6,65,29.80,10.0,SSE,8.1,-,N/A,,Overcast,160,2012-11-18 10:35:00
3:55 AM,39.2,28.4,65,29.78,10.0,South,11.5,-,N/A,,Overcast,170,2012-11-18 10:55:00
4:15 AM,39.2,28.4,65,29.78,10.0,WSW,4.6,-,N/A,,Overcast,250,2012-11-18 11:15:00
4:35 AM,41.0,28.4,61,29.78,10.0,South,6.9,-,N/A,,Overcast,180,2012-11-18 11:35:00
4:55 AM,41.0,28.4,61,29.79,10.0,SSE,3.5,-,N/A,,Overcast,150,2012-11-18 11:55:00
5:15 AM,39.2,28.4,65,29.79,10.0,Calm,Calm,-,N/A,,Overcast,0,2012-11-18 12:15:00
5:35 AM,41.0,30.2,65,29.78,10.0,SW,5.8,-,N/A,,Overcast,230,2012-11-18 12:35:00
5:55 AM,35.6,26.6,70,29.79,10.0,Calm,Calm,-,N/A,,Mostly Cloudy,0,2012-11-18 12:55:00
6:15 AM,35.6,28.4,75,29.78,10.0,Calm,Calm,-,N/A,,Overcast,0,2012-11-18 13:15:00
6:35 AM,37.4,28.4,70,29.77,10.0,SSE,3.5,-,N/A,,Mostly Cloudy,160,2012-11-18 13:35:00
6:55 AM,35.6,28.4,75,29.78,10.0,SSW,8.1,-,N/A,,Clear,200,2012-11-18 13:55:00
7:15 AM,35.6,26.6,70,29.78,10.0,South,3.5,-,N/A,,Clear,190,2012-11-18 14:15:00
7:35 AM,35.6,28.4,75,29.79,10.0,Calm,Calm,-,N/A,,Clear,0,2012-11-18 14:35:00
7:55 AM,37.4,30.2,75,29.79,10.0,South,5.8,-,N/A,,Clear,170,2012-11-18 14:55:00
8:15 AM,39.2,30.2,70,29.80,10.0,SW,8.1,-,N/A,,Scattered Clouds,220,2012-11-18 15:15:00
8:35 AM,42.8,33.8,70,29.81,10.0,West,5.8,-,N/A,,Partly Cloudy,260,2012-11-18 15:35:00
8:55 AM,44.6,30.2,57,29.82,10.0,SW,8.1,-,N/A,,Partly Cloudy,220,2012-11-18 15:55:00
9:55 AM,50.0,30.2,47,29.82,10.0,South,11.5,-,N/A,,Scattered Clouds,180,2012-11-18 16:55:00
10:16 AM,53.6,30.2,41,29.82,10.0,SW,11.5,17.3,N/A,,Clear,230,2012-11-18 17:16:00
10:35 AM,53.6,28.4,38,29.83,10.0,SW,12.7,19.6,N/A,,Clear,230,2012-11-18 17:35:00
10:55 AM,53.6,28.4,38,29.83,10.0,WSW,13.8,19.6,N/A,,Clear,240,2012-11-18 17:55:00
11:15 AM,55.4,26.6,33,29.83,10.0,SW,16.1,21.9,N/A,,Clear,220,2012-11-18 18:15:00
11:35 AM,55.4,26.6,33,29.84,10.0,WSW,9.2,21.9,N/A,,Scattered Clouds,250,2012-11-18 18:35:00
11:55 AM,55.4,26.6,33,29.83,10.0,SW,9.2,17.3,N/A,,Overcast,230,2012-11-18 18:55:00
12:15 PM,55.4,26.6,33,29.82,10.0,WSW,10.4,-,N/A,,Scattered Clouds,240,2012-11-18 19:15:00
12:35 PM,55.4,24.8,31,29.83,10.0,WSW,12.7,17.3,N/A,,Clear,250,2012-11-18 19:35:00
12:55 PM,55.4,26.6,33,29.84,10.0,West,12.7,20.7,N/A,,Partly Cloudy,270,2012-11-18 19:55:00
1:15 PM,55.4,26.6,33,29.83,10.0,WSW,9.2,-,N/A,,Scattered Clouds,250,2012-11-18 20:15:00
1:55 PM,53.6,26.6,35,29.85,10.0,West,18.4,26.5,N/A,,Mostly Cloudy,260,2012-11-18 20:55:00
2:15 PM,53.6,24.8,33,29.86,10.0,West,16.1,23.0,N/A,,Mostly Cloudy,270,2012-11-18 21:15:00
2:35 PM,53.6,24.8,33,29.86,10.0,WSW,11.5,17.3,N/A,,Mostly Cloudy,250,2012-11-18 21:35:00
2:55 PM,53.6,24.8,33,29.88,10.0,West,15.0,21.9,N/A,,Clear,270,2012-11-18 21:55:00
3:35 PM,51.8,24.8,35,29.90,10.0,WSW,15.0,20.7,N/A,,Partly Cloudy,250,2012-11-18 22:35:00
3:55 PM,51.8,23.0,33,29.90,10.0,WSW,16.1,21.9,N/A,,Clear,250,2012-11-18 22:55:00
4:15 PM,51.8,21.2,30,29.90,10.0,WSW,16.1,23.0,N/A,,Clear,250,2012-11-18 23:15:00
4:35 PM,50.0,21.2,32,29.91,10.0,WSW,16.1,23.0,N/A,,Clear,240,2012-11-18 23:35:00
4:55 PM,48.2,21.2,34,29.93,10.0,WSW,5.8,16.1,N/A,,Clear,240,2012-11-18 23:55:00
5:15 PM,46.4,23.0,40,29.94,10.0,WSW,9.2,-,N/A,,Clear,240,2012-11-19 00:15:00
5:35 PM,46.4,24.8,43,29.95,10.0,WSW,9.2,16.1,N/A,,Clear,240,2012-11-19 00:35:00
5:55 PM,46.4,24.8,43,29.96,10.0,WSW,10.4,-,N/A,,Clear,250,2012-11-19 00:55:00
6:15 PM,46.4,24.8,43,29.96,10.0,SW,10.4,-,N/A,,Scattered Clouds,220,2012-11-19 01:15:00
6:35 PM,44.6,24.8,46,29.96,10.0,SW,3.5,-,N/A,,Scattered Clouds,220,2012-11-19 01:35:00
6:55 PM,39.2,23.0,52,29.97,10.0,SSW,8.1,-,N/A,,Mostly Cloudy,200,2012-11-19 01:55:00
7:15 PM,37.4,23.0,56,29.97,10.0,SSW,8.1,-,N/A,,Mostly Cloudy,210,2012-11-19 02:15:00
7:35 PM,37.4,24.8,60,29.98,10.0,Calm,Calm,-,N/A,,Partly Cloudy,0,2012-11-19 02:35:00
7:55 PM,42.8,23.0,46,29.99,10.0,WSW,5.8,-,N/A,,Partly Cloudy,250,2012-11-19 02:55:00
8:15 PM,39.2,21.2,49,29.99,10.0,SW,6.9,-,N/A,,Clear,220,2012-11-19 03:15:00
8:35 PM,39.2,23.0,52,29.99,10.0,SW,10.4,-,N/A,,Clear,220,2012-11-19 03:35:00
8:55 PM,41.0,23.0,49,30.00,10.0,SW,8.1,-,N/A,,Clear,230,2012-11-19 03:55:00
9:35 PM,39.2,23.0,52,30.01,10.0,WSW,6.9,-,N/A,,Partly Cloudy,240,2012-11-19 04:35:00
9:55 PM,39.2,23.0,52,30.01,10.0,WSW,8.1,-,N/A,,Mostly Cloudy,240,2012-11-19 04:55:00
10:15 PM,39.2,23.0,52,30.02,10.0,SW,8.1,-,N/A,,Overcast,230,2012-11-19 05:15:00
10:35 PM,39.2,23.0,52,30.02,10.0,SW,6.9,-,N/A,,Overcast,230,2012-11-19 05:35:00
10:55 PM,41.0,24.8,53,30.02,10.0,WSW,6.9,-,N/A,,Overcast,250,2012-11-19 05:55:00
11:35 PM,39.2,24.8,56,30.02,10.0,WSW,6.9,-,N/A,,Partly Cloudy,240,2012-11-19 06:35:00
11:55 PM,39.2,24.8,56,30.03,10.0,WSW,8.1,-,N/A,,Clear,240,2012-11-19 06:55:00